Tracking 30995 objects as of 5-Jul-2025
HD Live streaming from Space Station
objects crossing your sky now

CZ-3B R/B

Track CZ-3B R/B now!


NORAD ID: 25405
Int'l Code: 1998-044B
Perigee: 642.0 km
Apogee: 35,709.9 km
Inclination: 18.5 °
Period: 637.9 minutes
Semi major axis: 24546 km
RCS: 22.0892 m2 (large)
Launch date: July 18, 1998
Source: People's Republic of China (PRC)
Launch site: Xichang Space Center, China (XSC)

Note: This is a ROCKET BODY
Your satellite tracking list
Your tracking list is empty




NASA's NSSDC Master Catalog

Two Line Element Set (TLE):
1 25405U 98044B   25183.96523259  .00000026  00000-0  15288-2 0  9995
2 25405  18.4521 122.3002 7143037 213.2304  50.9315  2.25739510222192
Source of the keplerian elements: AFSPC